Weather History for Perry, IA

Change the Weather History Date:

Friday, December 6, 2013

  Actual Average Record
Temperature  
Mean Temperature 6 °F -  
Max Temperature 13 °F 37 °F 64 °F (1975)
Min Temperature 0 °F 16 °F -9 °F (1950)
Degree Days  
Heating Degree Days 58    
Moisture  
Dew Point -4 °F    
Average Humidity 64    
Maximum Humidity 72    
Minimum Humidity 54    
Precipitation  
Precipitation 0.00 in - - ()
Sea Level Pressure  
Sea Level Pressure 30.52 in    
Wind  
Wind Speed 12 mph (NW)    
Max Wind Speed 17 mph    
Max Gust Speed 22 mph    
Visibility 10 miles    
Events      
Averages and records for this station are not official NWS values.
T = Trace of Precipitation, MM = Missing Value Source: NWS Daily Summary

Daily Weather History Graph

Daily Weather History Graph

Search for Another Location

Airport:

Trip Planner

Search our weather history database for the weather conditions in past years. The results will help you decide how hot, cold, wet, or windy it might be!

Date:

Astronomy

Dec. 06, 2013 Rise Set
Actual Time 7:29 AM CST 4:45 PM CST
Civil Twilight 6:58 AM CST 5:17 PM CST
Nautical Twilight 6:23 AM CST 5:51 PM CST
Astronomical Twilight 5:49 AM CST 6:25 PM CST
Moon 10:33 AM CST (12/6) 9:20 PM CST (12/6)
Length of Visible Light 10h 18m
Length of Day
9h 15m
Waxing Crescent, 19% of the Moon is Illuminated
Dec 6
Waxing Crescent
Dec 9
First Quarter
Dec 17
Full
Dec 25
Last Quarter
Jan 1
New

Hourly Weather History & Observations

Time (CST) Temp. Windchill Dew Point Humidity Pressure Visibility Wind Dir Wind Speed Gust Speed Precip Events Conditions
12:15 AM 6.4 °F -9.8 °F -2.9 °F 65% 30.41 in 10.0 mi NW 12.7 mph - N/A   Clear
12:35 AM 6.8 °F -10.0 °F -3.1 °F 64% 30.40 in 10.0 mi NW 13.8 mph - N/A   Clear
12:55 AM 6.8 °F -9.3 °F -3.3 °F 63% 30.40 in 10.0 mi NW 12.7 mph 17.3 mph N/A   Mostly Cloudy
1:15 AM 7.0 °F -11.0 °F -4.0 °F 61% 30.40 in 10.0 mi NNW 16.1 mph - N/A   Mostly Cloudy
1:35 AM 7.0 °F -9.8 °F -3.6 °F 62% 30.40 in 10.0 mi NW 13.8 mph - N/A   Scattered Clouds
1:55 AM 6.8 °F -10.7 °F -4.0 °F 61% 30.41 in 10.0 mi NNW 15.0 mph - N/A   Clear
2:15 AM 6.4 °F -6.3 °F -4.0 °F 62% 30.42 in 10.0 mi NW 8.1 mph - N/A   Clear
2:35 AM 5.7 °F -10.7 °F -4.7 °F 62% 30.41 in 10.0 mi NW 12.7 mph - N/A   Clear
2:55 AM 4.8 °F -11.1 °F -5.3 °F 63% 30.41 in 10.0 mi NNW 11.5 mph - N/A   Clear
3:15 AM 4.1 °F -10.2 °F -5.1 °F 66% 30.41 in 10.0 mi NW 9.2 mph - N/A   Clear
3:35 AM 4.1 °F -11.1 °F -4.7 °F 67% 30.44 in 10.0 mi WNW 10.4 mph - N/A   Clear
3:55 AM 3.7 °F -11.6 °F -5.3 °F 66% 30.44 in 10.0 mi NW 10.4 mph - N/A   Clear
5:35 AM 2.3 °F -15.0 °F -5.3 °F 71% 30.46 in 10.0 mi WNW 12.7 mph 16.1 mph N/A   Clear
5:55 AM 2.1 °F -15.2 °F -5.8 °F 69% 30.46 in 10.0 mi WNW 12.7 mph - N/A   Clear
6:15 AM 1.8 °F -13.1 °F -5.8 °F 71% 30.46 in 10.0 mi WNW 9.2 mph 18.4 mph N/A   Clear
6:35 AM 1.4 °F -15.3 °F -6.3 °F 70% 30.47 in 10.0 mi NW 11.5 mph - N/A   Clear
6:55 AM 1.2 °F -15.6 °F -6.7 °F 69% 30.48 in 10.0 mi WNW 11.5 mph - N/A   Clear
7:15 AM 0.9 °F -14.2 °F -6.9 °F 70% 30.49 in 10.0 mi NW 9.2 mph - N/A   Clear
7:35 AM 0.5 °F -17.3 °F -7.4 °F 69% 30.48 in 10.0 mi NW 12.7 mph - N/A   Clear
7:55 AM 0.5 °F -17.3 °F -7.1 °F 70% 30.47 in 10.0 mi NW 12.7 mph - N/A   Clear
8:15 AM 0.7 °F -14.4 °F -7.1 °F 70% 30.47 in 10.0 mi NW 9.2 mph - N/A   Clear
8:35 AM 1.4 °F -14.5 °F -6.7 °F 69% 30.49 in 10.0 mi NW 10.4 mph - N/A   Clear
8:55 AM 2.7 °F -15.3 °F -6.3 °F 66% 30.50 in 10.0 mi NNW 13.8 mph - N/A   Clear
9:15 AM 3.4 °F -14.4 °F -6.0 °F 65% 30.51 in 10.0 mi NW 13.8 mph - N/A   Clear
9:35 AM 3.9 °F -13.7 °F -6.2 °F 63% 30.51 in 10.0 mi NNW 13.8 mph 17.3 mph N/A   Clear
9:55 AM 3.9 °F -14.3 °F -7.1 °F 60% 30.52 in 10.0 mi NNW 15.0 mph 20.7 mph N/A   Clear
10:15 AM 5.0 °F -13.6 °F -6.0 °F 61% 30.51 in 10.0 mi NNW 16.1 mph - N/A   Clear
10:35 AM 5.7 °F -13.2 °F -5.4 °F 60% 30.51 in 10.0 mi NNW 17.3 mph 21.9 mph N/A   Clear
10:55 AM 6.6 °F -10.2 °F -4.9 °F 59% 30.52 in 10.0 mi NNW 13.8 mph - N/A   Clear
11:15 AM 7.5 °F -8.4 °F -4.4 °F 58% 30.52 in 10.0 mi North 12.7 mph - N/A   Clear
11:35 AM 9.1 °F -8.2 °F -2.9 °F 58% 30.52 in 10.0 mi NNW 16.1 mph 19.6 mph N/A   Clear
11:55 AM 9.1 °F -6.4 °F -3.6 °F 56% 30.52 in 10.0 mi NNW 12.7 mph 18.4 mph N/A   Clear
12:15 PM 9.5 °F -5.2 °F -3.1 °F 57% 30.51 in 10.0 mi NNW 11.5 mph - N/A   Clear
12:35 PM 10.4 °F -6.0 °F -2.4 °F 56% 30.50 in 10.0 mi NNW 15.0 mph - N/A   Clear
12:55 PM 11.1 °F -0.6 °F -2.0 °F 56% 30.49 in 10.0 mi North 8.1 mph 20.7 mph N/A   Clear
1:15 PM 12.0 °F -2.0 °F -0.9 °F 56% 30.50 in 10.0 mi NNW 11.5 mph 18.4 mph N/A   Clear
1:35 PM 12.4 °F -0.8 °F -0.9 °F 55% 30.51 in 10.0 mi NNW 10.4 mph - N/A   Clear
1:55 PM 12.4 °F -2.3 °F -0.8 °F 56% 30.51 in 10.0 mi NNW 12.7 mph - N/A   Clear
2:15 PM 13.8 °F -0.5 °F 0.1 °F 55% 30.50 in 10.0 mi NW 12.7 mph 17.3 mph N/A   Clear
2:35 PM 13.5 °F -1.5 °F -0.4 °F 54% 30.51 in 10.0 mi NW 13.8 mph - N/A   Clear
2:55 PM 13.5 °F -0.2 °F -0.0 °F 55% 30.50 in 10.0 mi NNW 11.5 mph 17.3 mph N/A   Clear
3:15 PM 13.1 °F 1.8 °F -0.6 °F 54% 30.51 in 10.0 mi NW 8.1 mph 18.4 mph N/A   Clear
3:35 PM 12.7 °F -0.4 °F -0.4 °F 56% 30.51 in 10.0 mi NW 10.4 mph - N/A   Clear
3:55 PM 12.9 °F -0.2 °F -0.6 °F 55% 30.52 in 10.0 mi North 10.4 mph - N/A   Clear
4:15 PM 12.2 °F -1.0 °F -0.6 °F 57% 30.53 in 10.0 mi NNW 10.4 mph - N/A   Clear
4:35 PM 11.8 °F 0.3 °F -0.4 °F 58% 30.53 in 10.0 mi NNW 8.1 mph - N/A   Clear
4:55 PM 11.5 °F -1.9 °F -0.4 °F 59% 30.54 in 10.0 mi NNW 10.4 mph - N/A   Clear
5:35 PM 10.4 °F -1.5 °F -0.4 °F 62% 30.54 in 10.0 mi NNW 8.1 mph - N/A   Clear
5:55 PM 10.0 °F -2.9 °F -0.8 °F 62% 30.55 in 10.0 mi NNW 9.2 mph - N/A   Clear
6:15 PM 9.3 °F -4.6 °F -0.9 °F 63% 30.56 in 10.0 mi NW 10.4 mph - N/A   Clear
6:35 PM 9.0 °F -4.2 °F -1.3 °F 63% 30.57 in 10.0 mi NW 9.2 mph - N/A   Clear
6:55 PM 8.2 °F -4.1 °F -1.3 °F 65% 30.58 in 10.0 mi NW 8.1 mph - N/A   Clear
7:15 PM 7.7 °F -3.7 °F -1.7 °F 66% 30.59 in 10.0 mi NW 6.9 mph - N/A   Clear
7:35 PM 7.2 °F -7.3 °F -1.8 °F 67% 30.60 in 10.0 mi NNW 10.4 mph - N/A   Clear
7:55 PM 6.6 °F -8.8 °F -2.2 °F 67% 30.61 in 10.0 mi NNW 11.5 mph - N/A   Clear
8:15 PM 6.3 °F -8.4 °F -2.6 °F 67% 30.61 in 10.0 mi NW 10.4 mph - N/A   Clear
8:35 PM 5.7 °F -10.7 °F -3.1 °F 67% 30.62 in 10.0 mi NNW 12.7 mph - N/A   Clear
8:55 PM 5.0 °F -10.8 °F -3.5 °F 68% 30.63 in 10.0 mi NNW 11.5 mph - N/A   Clear
9:15 PM 4.5 °F -12.3 °F -3.8 °F 69% 30.63 in 10.0 mi NNW 12.7 mph - N/A   Clear
9:35 PM 3.9 °F -11.3 °F -4.0 °F 70% 30.64 in 10.0 mi NNW 10.4 mph - N/A   Clear
9:55 PM 3.2 °F -12.2 °F -4.0 °F 72% 30.64 in 10.0 mi NW 10.4 mph - N/A   Clear
10:15 PM 2.3 °F -15.7 °F -5.4 °F 70% 30.65 in 10.0 mi NNW 13.8 mph - N/A   Clear
10:35 PM 1.9 °F -15.5 °F -6.0 °F 69% 30.65 in 10.0 mi NNW 12.7 mph - N/A   Clear
10:55 PM 1.4 °F -15.3 °F -6.0 °F 71% 30.66 in 10.0 mi NNW 11.5 mph - N/A   Clear
11:15 PM 1.0 °F -16.6 °F -6.2 °F 72% 30.67 in 10.0 mi NNW 12.7 mph - N/A   Clear
11:35 PM 0.5 °F -14.6 °F -6.5 °F 72% 30.67 in 10.0 mi NNW 9.2 mph - N/A   Clear
11:55 PM 0.3 °F -15.8 °F -6.7 °F 72% 30.68 in 10.0 mi NNW 10.4 mph - N/A   Clear